Regional Weather Roundup
Issued by NWS Kansas City/Pleasant Hill, MO

Home | Current Version | Previous Version | Text Only | Print | Product List | Glossary On
Versions: 1 2 3 4 5 6 7 8 9 10 11 12 13 14 15 16 17 18 19 20 21 22 23 24 25 26 27
000
ASUS43 KEAX 250610
RWREAX

WEATHER ROUNDUP FOR EASTERN KANSAS AND NORTHWEST MISSOURI
NATIONAL WEATHER SERVICE KANSAS CITY/PLEASANT HILL MO
100 AM CDT TUE APR 25 2017

KSZ040-057-103>105-MOZ028-029-037-043-250700-
...KANSAS CITY METROPOLITAN AREA...

CITY           SKY/WX    TMP DP  RH WIND       PRES   REMARKS
K.C. INTL      MOCLDY    61  44  53 S10       29.58R
6HR MIN TEMP:  58; 6HR MAX TEMP:  72;

K.C. DOWNTOWN  CLOUDY    66  44  45 S12       29.58S
6HR MIN TEMP:  65; 6HR MAX TEMP:  74;

LEES SUMMIT    CLOUDY    63  43  48 S12       29.59F
6HR MIN TEMP:  61; 6HR MAX TEMP:  73;

OLATHE - IXD   PTCLDY    61  45  55 S10       29.59S
6HR MIN TEMP:  59; 6HR MAX TEMP:  71;

OLATHE - OJC   CLOUDY    60  46  59 S8        29.59S
6HR MIN TEMP:  58; 6HR MAX TEMP:  70;

LAWRENCE       CLOUDY    64  46  52 SE8       29.57S

$$

MOZ001>008-011>017-020>025-030>033-038>040-044>046-053-054-250700-
...NORTHERN AND CENTRAL MISSOURI...

CITY           SKY/WX    TMP DP  RH WIND       PRES   REMARKS
ST. JOSEPH     MOCLDY    60  46  59 S8        29.56F
6HR MIN TEMP:  60; 6HR MAX TEMP:  72;

MOSBY          CLOUDY    57  43  58 CALM      29.60S
WHITEMAN AFB   MOCLDY    54  40  59 S7        29.61F
6HR MIN TEMP:  53; 6HR MAX TEMP:  71;

CLINTON        CLOUDY    57  41  54 S7        29.63F
SEDALIA        CLOUDY    59  39  47 S13       29.64S
6HR MIN TEMP:  56; 6HR MAX TEMP:  72;

WARSAW         NOT AVBL
CHILLICOTHE      N/A     55  42  61 CALM      29.62S
6HR MIN TEMP:  53; 6HR MAX TEMP:  75;

KIRKSVILLE     CLEAR     49  32  52 SE7       29.64S
6HR MIN TEMP:  49; 6HR MAX TEMP:  72;


$$

MOZ041-047>049-056>058-063>065-088>090-097-250700-
...EASTERN AND SOUTHERN MISSOURI...

CITY           SKY/WX    TMP DP  RH WIND       PRES   REMARKS
ST. LOUIS INTL PTCLDY    63  39  41 S7        29.72S
6HR MIN TEMP:  63; 6HR MAX TEMP:  74;

SPIRIT OF STL  CLEAR     59  44  57 S3        29.70F
COLUMBIA       CLEAR     57  38  48 S9        29.67R
JEFFERSON CITY CLEAR     53  40  61 SE3       29.67R
ROLLA          CLEAR     57  42  57 S13       29.69S
OSAGE BEACH    MOCLDY    59  40  49 S8        29.68F
SPRINGFIELD    CLOUDY    60  38  43 S16       29.66F
BRANSON        CLEAR     54  39  58 CALM      29.71F
JOPLIN         CLEAR     59  44  57 S8        29.64F
WEST PLAINS    CLEAR     58  45  62 S8        29.74F

$$

IAZ060-094-KSZ022-034>040-054-083-096-NEZ052-066-093-250700-
...KANSAS...SOUTHEAST NEBRASKA AND IOWA...

CITY           SKY/WX    TMP DP  RH WIND       PRES   REMARKS
TOPEKA         CLOUDY    63  48  58 S9        29.54F
6HR MIN TEMP:  63; 6HR MAX TEMP:  72;

MANHATTAN      MOCLDY    64  48  56 S9        29.51F
EMPORIA        CLOUDY    61  49  64 S17       29.55F
CHANUTE        MOCLDY    61  47  59 S13       29.59F
WICHITA        CLOUDY    63  48  58 SE16      29.50F
OMAHA          PTCLDY    57  46  66 W7        29.52S
LINCOLN        CLEAR     55  44  66 N15       29.54R
FALLS CITY     MOCLDY    54  46  74 SE7       29.53F
LAMONI         CLOUDY    60  38  43 S8        29.59F
DES MOINES     CLOUDY    63  37  38 S8        29.57F

$$





USA.gov is the U.S. government's official web portal to all federal, state and local government web resources and services.